{"data":{"norad_id":63644,"intl_designator":"2025-083L","name":"STARLINK-33852","alt_names":[],"object_type":"PAYLOAD","status":"ACTIVE","operator":null,"country":"US","launch_date":"2025-04-25","launch_site_code":"AFETR","launch_vehicle":null,"mission":null,"orbit_class":"UNKNOWN","rcs_meters":null,"size_class":null,"mass_kg":null,"dimensions":null,"purposes":["comms"],"wikipedia_slug":null,"has_3d_model":false,"image_url":null,"decayed_at":null,"tle_current":{"epoch":"2026-09-20T06:39:12.277152Z","epoch_age_seconds":171758,"freshness":"FRESH","line1":"1 63644U 25083L   26263.27722543  .00014557  00000+0  53728-3 0  9991","line2":"2 63644  43.0038 346.5329 0002334 281.6234  78.4355 15.27591538 79850","mean_motion":15.27591538,"eccentricity":0.0002334,"inclination_deg":43.0038,"raan_deg":346.5329,"arg_perigee_deg":281.6234,"mean_anomaly_deg":78.4355,"bstar":0.00053728,"rev_number":7985,"period_min":94.266036710659,"perigee_km":481.41315456319,"apogee_km":484.61594010549,"semimajor_km":6861.1515473343,"source":"CELESTRAK","updated_at":"2026-09-21T09:00:35.052571Z"}}}